USA 122

operational
NORAD ID: 23893 Int'l Des: 1996-029 Owner: NROC/NRL Country: US
LEO
追跡 地上

USA 122について

説明を読み込み中...

リアルタイム位置

3D地球を読み込み中...

次回通過

高度履歴

Altitude vs Time

uPlot chart will show altitude changes over time

軌道要素

1 23893U 96029A 26071.31446697 .00001797 00000-0 31529-3 0 9994
2 23893 63.3196 85.5412 0846500 47.6779 319.2878 13.45898404 92233
Epoch: Mar 12, 2026 • Age: 28 hours

現在のステータス

高度 1717.2 km
速度 6.72 km/s
衛星直下点 -32.60°S, 48.25°E
打ち上げ日 May 12, 1996
運用期間 29.8 years
タイプ military

技術仕様

分類 Payload
質量 3000.00 kg
乾燥質量 3000.00 kg
総質量 3000.00 kg
長さ 3.00 m
直径 4.00 m
スパン 4.00 m
形状 Cyl
製造者 LMA/DENV
バスタイプ NOSS B
フェーズステータス Attached in Orbit
所有者/国 NROC/NRL/US

大規模コンステレーション

Loading constellations...